TimeCST,TemperatureF,Dew PointF,Humidity,Sea Level PressureIn,VisibilityMPH,Wind Direction,Wind SpeedMPH,Gust SpeedMPH,PrecipitationIn,Events,Conditions,WindDirDegrees,DateUTC
12:15 AM,33.4,32.4,96,29.71,0.5,ESE,4.6,-,N/A,Fog,Fog,120,2013-01-11 06:15:00
12:35 AM,33.4,32.4,96,29.72,0.5,SE,4.6,-,N/A,Fog,Fog,130,2013-01-11 06:35:00
12:55 AM,33.4,32.4,96,29.72,0.5,SE,4.6,-,N/A,Fog,Fog,140,2013-01-11 06:55:00
1:15 AM,34.0,32.9,96,29.71,0.8,SE,4.6,-,N/A,,Overcast,140,2013-01-11 07:15:00
1:35 AM,33.8,32.9,96,29.70,0.5,SSE,3.5,-,0.01,Fog,Fog,150,2013-01-11 07:35:00
1:55 AM,33.8,32.5,95,29.71,0.8,SSE,3.5,-,0.01,,Overcast,160,2013-01-11 07:55:00
2:15 AM,33.8,32.5,95,29.71,0.8,SSE,5.8,-,N/A,,Overcast,150,2013-01-11 08:15:00
2:35 AM,33.4,32.4,96,29.70,0.5,South,5.8,-,N/A,Fog,Fog,170,2013-01-11 08:35:00
2:55 AM,33.3,32.2,96,29.69,0.2,Calm,Calm,-,N/A,Fog,Fog,0,2013-01-11 08:55:00
3:15 AM,33.3,32.2,96,29.68,0.2,SE,5.8,-,N/A,Fog,Fog,130,2013-01-11 09:15:00
3:35 AM,33.6,32.4,95,29.67,0.2,SE,5.8,-,N/A,Fog,Fog,130,2013-01-11 09:35:00
3:55 AM,33.6,32.4,95,29.65,0.2,SE,9.2,-,N/A,Fog,Fog,140,2013-01-11 09:55:00
4:15 AM,33.4,32.4,96,29.65,0.2,SSE,6.9,-,N/A,Fog,Fog,160,2013-01-11 10:15:00
4:35 AM,33.4,32.4,96,29.63,0.2,SE,5.8,-,N/A,Fog,Fog,140,2013-01-11 10:35:00
4:55 AM,33.8,32.9,96,29.63,0.2,SSE,8.1,-,N/A,Snow,Light Snow,150,2013-01-11 10:55:00
5:15 AM,34.2,33.1,96,29.62,0.2,SE,10.4,-,N/A,Snow,Light Snow,140,2013-01-11 11:15:00
5:35 AM,34.7,33.4,95,29.62,0.2,SSE,9.2,-,N/A,Snow,Light Snow,150,2013-01-11 11:35:00
5:55 AM,34.3,33.3,96,29.63,0.2,South,9.2,-,N/A,Snow,Heavy Snow,170,2013-01-11 11:55:00
6:15 AM,34.3,33.3,96,29.63,0.2,South,9.2,-,N/A,Snow,Heavy Snow,170,2013-01-11 12:15:00
6:35 AM,34.7,33.8,97,29.64,0.2,South,8.1,-,N/A,Snow,Heavy Snow,170,2013-01-11 12:35:00
6:55 AM,34.9,33.8,96,29.64,0.2,South,5.8,-,N/A,Fog,Fog,170,2013-01-11 12:55:00
7:15 AM,34.9,33.8,96,29.63,0.2,SSE,6.9,-,N/A,Snow,Light Snow,160,2013-01-11 13:15:00
7:35 AM,34.9,34.0,97,29.63,0.2,South,6.9,-,N/A,Snow,Light Snow,170,2013-01-11 13:35:00
7:55 AM,35.1,34.0,96,29.63,0.2,South,8.1,-,N/A,Snow,Light Snow,170,2013-01-11 13:55:00
8:15 AM,35.1,34.0,96,29.62,0.2,SSE,8.1,-,N/A,Fog,Fog,160,2013-01-11 14:15:00
8:35 AM,35.4,34.3,96,29.61,0.2,SSE,9.2,-,N/A,Fog,Fog,150,2013-01-11 14:35:00
8:55 AM,36.1,35.2,97,29.60,0.2,SE,6.9,-,N/A,Fog,Fog,140,2013-01-11 14:55:00
9:15 AM,36.7,35.8,97,29.60,0.2,SSE,9.2,-,N/A,Snow,Light Snow,160,2013-01-11 15:15:00
9:35 AM,37.4,36.5,97,29.60,0.2,SSE,10.4,-,N/A,Snow,Light Snow,160,2013-01-11 15:35:00
9:55 AM,37.8,36.9,97,29.60,0.2,SSE,8.1,-,N/A,Snow,Light Snow,160,2013-01-11 15:55:00
10:15 AM,38.1,37.2,97,29.59,0.2,SSE,8.1,-,N/A,Fog,Fog,160,2013-01-11 16:15:00
10:35 AM,39.2,38.3,97,29.59,0.2,SSE,8.1,-,N/A,,Overcast,160,2013-01-11 16:35:00
10:55 AM,38.3,37.4,97,29.58,0.2,SSE,4.6,-,N/A,Fog,Fog,160,2013-01-11 16:55:00
11:15 AM,38.7,37.8,97,29.57,0.2,SSE,8.1,-,N/A,Fog,Fog,160,2013-01-11 17:15:00
11:35 AM,39.7,38.8,97,29.55,0.2,SSE,10.4,-,N/A,Fog,Fog,150,2013-01-11 17:35:00
11:55 AM,41.0,40.1,97,29.53,0.2,SSE,10.4,-,N/A,Fog,Fog,150,2013-01-11 17:55:00
12:15 PM,41.5,40.6,97,29.50,0.2,SE,9.2,-,N/A,Fog,Fog,140,2013-01-11 18:15:00
12:35 PM,41.9,41.0,97,29.49,0.2,SSE,9.2,-,N/A,Fog,Fog,150,2013-01-11 18:35:00
12:55 PM,40.8,39.9,97,29.48,0.2,SSE,8.1,-,N/A,Fog,Fog,150,2013-01-11 18:55:00
1:15 PM,41.2,40.3,97,29.48,0.2,South,8.1,-,N/A,Fog,Fog,170,2013-01-11 19:15:00
1:35 PM,41.0,40.1,97,29.47,1.5,South,10.4,-,N/A,,Overcast,170,2013-01-11 19:35:00
1:55 PM,41.0,40.1,97,29.47,2.0,South,9.2,-,N/A,,Overcast,170,2013-01-11 19:55:00
2:15 PM,41.5,40.6,97,29.47,3.0,South,6.9,-,N/A,,Overcast,170,2013-01-11 20:15:00
2:35 PM,41.4,40.5,97,29.48,4.0,South,5.8,-,N/A,,Scattered Clouds,170,2013-01-11 20:35:00
2:55 PM,41.5,40.6,97,29.47,4.0,SSE,6.9,-,N/A,,Clear,160,2013-01-11 20:55:00
3:15 PM,41.9,41.0,97,29.47,4.0,SSE,6.9,-,N/A,,Clear,150,2013-01-11 21:15:00
3:35 PM,42.8,41.9,97,29.46,5.0,SSE,8.1,-,N/A,,Clear,150,2013-01-11 21:35:00
3:55 PM,42.6,41.5,96,29.47,5.0,SSE,4.6,-,N/A,,Clear,150,2013-01-11 21:55:00
4:15 PM,41.4,40.3,96,29.47,4.0,SSE,6.9,-,N/A,,Clear,150,2013-01-11 22:15:00
4:35 PM,40.5,39.4,96,29.46,3.0,SSE,5.8,-,N/A,,Clear,160,2013-01-11 22:35:00
4:55 PM,39.2,37.9,95,29.45,4.0,SSE,8.1,-,N/A,,Clear,160,2013-01-11 22:55:00
5:15 PM,39.6,38.3,95,29.45,7.0,SSE,9.2,-,N/A,,Clear,160,2013-01-11 23:15:00
5:35 PM,39.9,38.5,95,29.44,10.0,SSE,12.7,-,N/A,,Clear,160,2013-01-11 23:35:00
5:55 PM,39.6,37.8,93,29.44,10.0,SSE,11.5,-,N/A,,Clear,160,2013-01-11 23:55:00
6:15 PM,41.0,38.7,91,29.44,10.0,South,11.5,-,N/A,,Clear,170,2013-01-12 00:15:00
6:35 PM,43.2,39.7,88,29.45,10.0,South,12.7,17.3,N/A,,Clear,170,2013-01-12 00:35:00
6:55 PM,45.5,41.0,84,29.46,10.0,South,16.1,20.7,N/A,,Clear,190,2013-01-12 00:55:00
7:15 PM,45.1,40.3,83,29.46,10.0,South,10.4,-,N/A,,Clear,190,2013-01-12 01:15:00
7:35 PM,44.6,39.9,84,29.46,10.0,SSW,9.2,-,N/A,,Clear,200,2013-01-12 01:35:00
7:55 PM,44.8,39.9,83,29.46,10.0,South,8.1,-,N/A,,Clear,190,2013-01-12 01:55:00
8:15 PM,44.2,39.7,84,29.46,10.0,South,10.4,-,N/A,,Clear,180,2013-01-12 02:15:00
8:35 PM,44.8,40.1,84,29.46,10.0,South,9.2,-,N/A,,Clear,190,2013-01-12 02:35:00
8:55 PM,46.0,40.6,81,29.46,10.0,SSW,12.7,16.1,N/A,,Clear,200,2013-01-12 02:55:00
9:15 PM,46.9,41.0,80,29.46,10.0,SSW,13.8,19.6,N/A,,Clear,200,2013-01-12 03:15:00
9:35 PM,48.2,41.4,77,29.47,10.0,SSW,17.3,25.3,N/A,,Clear,200,2013-01-12 03:35:00
9:55 PM,48.4,41.2,76,29.47,10.0,SSW,18.4,28.8,N/A,,Clear,200,2013-01-12 03:55:00
10:15 PM,48.7,41.2,75,29.47,10.0,SSW,19.6,26.5,N/A,,Clear,200,2013-01-12 04:15:00
10:35 PM,49.1,41.2,74,29.48,10.0,SSW,23.0,27.6,N/A,,Clear,200,2013-01-12 04:35:00
10:55 PM,49.1,41.0,74,29.49,10.0,SSW,18.4,26.5,N/A,,Clear,210,2013-01-12 04:55:00
11:15 PM,47.1,40.3,77,29.50,10.0,WSW,12.7,20.7,N/A,,Clear,240,2013-01-12 05:15:00
11:35 PM,44.1,39.4,84,29.51,10.0,WSW,11.5,-,N/A,,Clear,250,2013-01-12 05:35:00
11:55 PM,38.7,36.0,90,29.55,10.0,West,26.5,34.5,N/A,,Scattered Clouds,280,2013-01-12 05:55:00